Total_Precipitation_Accumulation
1.91 2.10 2.29 2.38 2.40 2.24 2.26 2.36 2.27 1.96 1.70 1.50 1.40 1.31 1.29 1.34 1.65 1.53 1.37 1.34 1.22 1.19 1.18 1.16 1.19 1.26 1.48 1.77 2.03 2.21 2.39 2.45 2.50 2.59 2.66 2.66 2.63 2.66
1.93 2.05 2.11 2.15 2.23 2.16 2.15 2.26 2.26 2.09 1.82 1.56 1.39 1.30 1.34 1.28 1.49 1.38 1.47 1.55 1.25 1.12 1.07 1.10 1.08 1.05 1.06 1.16 1.33 1.49 1.58 1.66 1.80 1.95 2.01 2.05 2.08 2.10
1.44 1.58 1.81 2.01 2.12 2.14 2.20 2.26 2.28 2.14 1.87 1.69 1.43 1.38 1.47 1.40 1.41 1.38 1.48 1.52 1.28 1.16 1.02 0.99 0.99 0.97 1.00 0.98 1.00 1.09 1.19 1.26 1.38 1.50 1.61 1.66 1.65 1.68
1.30 1.33 1.45 1.71 1.88 2.02 2.13 2.17 2.22 2.18 1.98 1.93 1.80 1.54 1.45 1.42 1.52 1.63 1.57 1.55 1.48 1.45 1.30 1.09 1.02 0.99 0.97 0.96 0.92 0.89 0.91 0.98 1.07 1.14 1.23 1.40 1.50 1.50
1.19 1.20 1.31 1.43 1.58 1.69 1.82 1.95 2.02 2.14 2.13 1.92 1.95 1.86 1.61 1.54 1.54 1.64 1.72 1.83 1.69 1.62 1.64 1.46 1.24 1.15 1.08 1.01 0.94 0.91 0.88 0.90 0.94 1.00 1.05 1.12 1.19 1.28
1.13 1.20 1.23 1.26 1.45 1.67 1.78 1.89 1.94 2.05 2.19 2.08 1.97 1.91 1.76 1.68 1.63 1.67 1.85 1.95 1.94 1.68 1.56 1.49 1.43 1.32 1.21 1.12 1.02 1.00 0.99 0.94 0.95 0.98 1.01 1.08 1.11 1.12
1.05 1.03 1.10 1.22 1.36 1.57 1.66 1.89 1.93 2.07 2.16 2.16 2.02 1.83 1.71 1.68 1.63 1.61 1.78 2.01 2.05 1.95 1.77 1.54 1.43 1.27 1.18 1.16 1.15 1.13 1.10 1.06 1.05 1.10 1.16 1.18 1.18 1.20
1.07 1.05 1.04 1.11 1.19 1.29 1.33 1.58 1.78 1.92 2.02 2.00 1.98 1.82 1.66 1.61 1.70 1.73 1.76 1.85 1.98 1.93 1.74 1.77 1.68 1.48 1.31 1.18 1.27 1.33 1.33 1.29 1.19 1.15 1.20 1.27 1.30 1.30
1.00 1.07 1.11 1.08 1.16 1.24 1.27 1.38 1.49 1.55 1.69 1.79 1.78 1.69 1.66 1.60 1.69 1.73 1.74 1.70 1.63 1.71 1.67 1.76 1.77 1.60 1.39 1.29 1.33 1.29 1.29 1.31 1.27 1.21 1.17 1.18 1.25 1.32
0.99 0.98 1.11 1.16 1.21 1.37 1.36 1.43 1.38 1.32 1.36 1.44 1.57 1.60 1.56 1.64 1.72 1.90 1.99 1.86 1.72 1.73 1.70 1.65 1.59 1.51 1.34 1.31 1.35 1.21 1.17 1.20 1.22 1.21 1.16 1.13 1.13 1.20
0.93 0.96 1.08 1.16 1.37 1.50 1.49 1.48 1.38 1.31 1.39 1.50 1.61 1.69 1.69 1.74 1.83 1.90 1.95 1.97 1.89 1.83 1.69 1.57 1.44 1.43 1.39 1.30 1.26 1.29 1.23 1.20 1.19 1.21 1.21 1.21 1.24 1.33
0.99 0.97 1.19 1.18 1.32 1.39 1.43 1.54 1.52 1.39 1.37 1.37 1.41 1.47 1.47 1.55 1.81 1.84 1.97 2.06 1.91 1.84 1.68 1.58 1.53 1.64 1.70 1.46 1.25 1.21 1.20 1.30 1.34 1.31 1.32 1.33 1.41 1.38
0.94 0.93 0.89 1.07 1.12 1.23 1.34 1.41 1.67 1.59 1.49 1.48 1.43 1.34 1.34 1.37 1.49 1.70 1.86 1.93 1.90 1.68 1.53 1.54 1.57 1.61 1.60 1.45 1.33 1.26 1.23 1.23 1.31 1.33 1.36 1.44 1.52 1.45
0.80 0.84 0.85 1.00 1.04 1.10 1.11 1.31 1.56 1.57 1.45 1.51 1.48 1.40 1.34 1.36 1.38 1.45 1.62 1.67 1.63 1.60 1.53 1.52 1.55 1.55 1.51 1.37 1.31 1.31 1.30 1.26 1.29 1.32 1.34 1.55 1.63 1.69
0.68 0.83 0.91 1.00 0.99 0.93 1.08 1.31 1.36 1.38 1.52 1.48 1.46 1.40 1.33 1.36 1.36 1.43 1.51 1.51 1.46 1.42 1.42 1.43 1.54 1.59 1.59 1.48 1.30 1.22 1.29 1.34 1.32 1.34 1.39 1.44 1.42 1.49
0.72 0.89 1.06 1.11 1.05 0.99 1.05 1.17 1.19 1.31 1.48 1.38 1.34 1.29 1.26 1.35 1.41 1.46 1.43 1.45 1.47 1.39 1.36 1.35 1.50 1.74 1.80 1.68 1.63 1.52 1.43 1.42 1.37 1.44 1.51 1.54 1.55 1.54
0.86 1.00 1.14 1.17 1.20 1.13 1.11 1.18 1.15 1.13 1.22 1.17 1.21 1.25 1.27 1.29 1.31 1.37 1.38 1.35 1.39 1.31 1.31 1.33 1.33 1.45 1.60 1.69 1.73 1.69 1.72 1.71 1.65 1.69 1.71 1.63 1.52 1.49
1.09 1.20 1.29 1.36 1.38 1.35 1.31 1.26 1.17 1.13 1.09 1.12 1.23 1.26 1.24 1.26 1.29 1.32 1.39 1.39 1.36 1.28 1.25 1.24 1.28 1.41 1.52 1.53 1.46 1.42 1.47 1.54 1.56 1.65 1.75 1.68 1.50 1.35
1.33 1.34 1.37 1.41 1.42 1.37 1.29 1.20 1.09 1.02 1.03 1.11 1.15 1.16 1.19 1.23 1.28 1.28 1.31 1.34 1.28 1.20 1.17 1.16 1.25 1.38 1.51 1.43 1.24 1.16 1.25 1.37 1.48 1.57 1.61 1.51 1.34 1.24
1.39 1.40 1.49 1.48 1.43 1.30 1.18 1.10 0.99 0.97 1.01 1.03 1.03 1.00 1.07 1.17 1.22 1.24 1.27 1.30 1.28 1.23 1.20 1.19 1.26 1.37 1.46 1.43 1.27 1.14 1.19 1.28 1.35 1.44 1.44 1.44 1.37 1.39
1.10 1.13 1.18 1.22 1.18 1.10 1.05 1.04 1.00 0.98 0.99 1.00 1.00 0.99 1.06 1.11 1.11 1.13 1.20 1.33 1.37 1.32 1.31 1.24 1.27 1.41 1.39 1.40 1.33 1.12 1.05 1.21 1.30 1.31 1.34 1.45 1.46 1.40
0.90 0.90 0.91 0.90 0.90 0.91 0.94 1.00 1.04 1.04 1.04 1.05 1.07 1.07 1.11 1.17 1.14 1.13 1.17 1.24 1.28 1.28 1.26 1.24 1.27 1.39 1.43 1.46 1.35 1.18 1.08 1.07 1.24 1.42 1.43 1.42 1.38 1.31
0.94 0.93 0.91 0.89 0.87 0.88 0.95 1.01 1.05 1.06 1.05 1.06 1.10 1.12 1.12 1.15 1.15 1.18 1.19 1.23 1.28 1.30 1.31 1.32 1.36 1.43 1.44 1.40 1.33 1.23 1.14 1.10 1.13 1.23 1.34 1.49 1.38 1.17